Flag for Pakistan Weather past 2 weeks in Rawalpindi, Pakistan

Now
81 °F

Clear.


Feels Like: 83 °F
Forecast: 74 / 96 °F
Wind: 7 mph from Northeast

Location: Islamabad Airport

Current Time: Aug 29, 2015 at 12:16:52 AM

Latest Report: Aug 29, 2015 at 12:00 AM


Visibility: 4 mi

Pressure: 29.71 "Hg (28.06 "Hg at 501m altitude)

Humidity: 66%

Dew point: 68 °F

Location of RawalpindiLocation

Historic Weather in Rawalpindi — Graph

°F

Rawalpindi temperature yesterday

Maximum temperature yesterday: 95 °F (at 2:00 PM)
Minimum temperature yesterday: 70 °F (at 6:00 AM)
Average temperature yesterday: 82 °F

Past Weeks' High & Low Weather Summary

 TemperatureHumidityPressure
High97 °F (Aug 18, 3:00 PM)100% (Aug 15, 6:00 AM)29.80 "Hg (Aug 15, 6:00 AM)
Low70 °F (Aug 20, 9:00 PM)32% (Aug 25, 6:00 PM)29.59 "Hg (Aug 22, 4:00 PM)
Average85 °F66%29.68 "Hg
* Reported Aug 13 11:00 PM — Aug 28 11:00 PM, Rawalpindi, Weather by CustomWeather, © 2015

Note: Actual official high and low records may vary slightly from our data, if they occured in-between our weather recording intervals... More about our weather records

Advertising

Rawalpindi weather history for previous 24 hours

 ConditionsComfort  
Time TempWeatherWind HumidityBarometerVisibility
11:00 PM
Fri, Aug 28
81 °FClear.7 mph66%29.71 "Hg4 mi
9:00 PM84 °FClear.7 mph58%29.71 "Hg4 mi
8:00 PM86 °FPassing clouds.7 mph55%29.68 "Hg4 mi
7:00 PM90 °FPassing clouds.7 mph49%29.68 "HgN/A
6:00 PM91 °FPassing clouds.9 mph46%29.68 "HgN/A
5:00 PM91 °FPassing clouds.9 mph46%29.68 "HgN/A
3:00 PM95 °FPassing clouds.7 mph39%29.71 "HgN/A
2:00 PM95 °FPassing clouds.7 mph39%29.74 "HgN/A
12:30 PM90 °FPassing clouds.9 mph46%29.77 "Hg5 mi
12:00 PM90 °FPassing clouds.9 mph46%29.77 "Hg5 mi
11:00 AM88 °FClear.7 mph52%29.80 "Hg5 mi
9:00 AM82 °FPassing clouds.5 mph58%29.80 "Hg4 mi
8:00 AM77 °FPassing clouds.5 mph69%29.80 "Hg4 mi
7:00 AM73 °FPassing clouds.5 mph78%29.77 "Hg4 mi
6:00 AM70 °FPassing clouds.5 mph83%29.77 "Hg4 mi
5:00 AM72 °FPassing clouds.5 mph83%29.74 "Hg4 mi
4:00 AM73 °FPassing clouds.5 mph78%29.71 "Hg4 mi
3:00 AM75 °FPassing clouds.9 mph69%29.71 "Hg4 mi
2:00 AM75 °FPassing clouds.9 mph69%29.71 "Hg4 mi
1:00 AM77 °FPassing clouds.12 mph65%29.71 "Hg4 mi
12:00 AM77 °FPassing clouds.12 mph61%29.71 "Hg4 mi
Weather by CustomWeather, © 2015

See weather overviewHow to use our weather pages